x

West Bermuda - 240 Nm West Of Bermuda (41048) Wave Buoy

5:50am - Sun 17th Dec 2017 All times are UTC.

  • Sig Wave height 8.2ft
  • Swell Direction
  • Peak Period 9s
  • Average Period 7s
  • Wind
    7mph, 13mph gusts
  • Sea Temp 74°f
  • Air Temp 65°f
  • Sea Pressure 1023.8mb

More Historic Weather Station data

Upgrade to MSW Pro to gain access to the past 30 days of data for over 8000 Wavebouys and Weather Stations around the globe.

Join

Comparision Forecast

View Surf forecast
   
Sun 12/17 5:50am 8ft 9s 7s 7 13 mph 1023.8mb 74f 65f
5:40am  -   -   -  9 11 mph 1023.8mb 74f 65f
5:30am  -   -   -  2 9 mph 1023.7mb 74f 65f
5:20am  -   -   -  4 9 mph 1023.7mb 74f 65f
5:10am  -   -   -  7 13 mph 1023.7mb 74f 65f
5:00am  -   -   -  2 11 mph 1023.8mb 74f 65f
4:50am 9ft 9s 7s 4 11 mph 1023.8mb 74f 65f
4:40am  -   -   -  7 11 mph 1023.8mb 74f 65f
4:30am  -   -   -  9 13 mph 1023.8mb 74f 65f
4:20am  -   -   -  7 13 mph 1024mb 74f 65f
4:10am  -   -   -  7 11 mph 1024.1mb 74f 65f
4:00am  -   -   -  9 13 mph 1024.2mb 74f 65f
3:50am 8ft 9s 7s 9 16 mph 1024.2mb 74f 65f
3:40am  -   -   -  9 18 mph 1024.1mb 74f 65f
3:30am  -   -   -  7 18 mph 1024.2mb 74f 65f
3:20am  -   -   -  9 13 mph 1024.1mb 74f 65f
3:10am  -   -   -  11 16 mph 1024mb 74f 65f
3:00am  -   -   -  9 18 mph 1023.8mb - 65f
2:50am 8ft 9s 7s 9 13 mph 1024.1mb 74f 65f
2:40am 8ft  -  7s 7 13 mph 1024mb 74f 65f
2:30am  -   -   -  11 16 mph 1024mb 74f 65f
2:20am  -   -   -  11 16 mph 1023.9mb 74f 65f
2:10am  -   -   -  7 13 mph 1023.9mb 74f 65f
2:00am  -   -   -  11 16 mph 1023.8mb 74f 65f
1:50am 8ft 9s 7s 4 9 mph 1023.8mb 74f 65f
1:40am  -   -   -  9 13 mph 1023.7mb 74f 65f
1:30am  -   -   -  9 13 mph 1023.6mb 74f 65f
1:20am  -   -   -  9 16 mph 1023.5mb 74f 65f
1:10am  -   -   -  7 13 mph 1023.4mb 74f 65f
1:00am  -   -   -  9 13 mph 1023.4mb 74f 65f
12:50am 8ft 9s 7s 7 16 mph 1023.2mb 74f 65f
12:40am  -   -   -  11 16 mph 1023.3mb 74f -
12:30am  -   -   -  9 16 mph 1023.2mb 74f 65f
12:20am  -   -   -  9 16 mph 1023.2mb 74f 65f
12:10am  -   -   -  11 18 mph 1023mb 74f 65f
12:00am  -   -   -  11 18 mph 1022.9mb 74f 65f
Sat 12/16 11:50pm 9ft 9s 7s 11 16 mph 1022.9mb 74f 65f
11:40pm 9ft  -  7s 11 16 mph 1022.7mb 74f 65f
11:30pm  -   -   -  11 16 mph 1022.6mb 74f 65f
11:20pm  -   -   -  11 16 mph 1022.5mb 74f 65f
11:10pm  -   -   -  11 18 mph 1022.4mb - 65f
11:00pm  -   -   -  11 18 mph 1022.2mb 74f 65f
10:50pm 9ft 9s 7s 13 20 mph 1022mb 74f 65f
10:40pm 9ft  -  7s 13 20 mph 1022mb 74f 65f
10:30pm  -   -   -  11 20 mph 1021.9mb 74f 65f
10:20pm  -   -   -  13 18 mph 1021.7mb 74f 65f
10:10pm  -   -   -  13 20 mph 1021.6mb 74f 65f
10:00pm  -   -   -  13 20 mph 1021.6mb 74f 65f
9:50pm 10ft 10s 7s 13 20 mph 1021.6mb 74f 65f
9:40pm 10ft  -  7s 13 20 mph 1021.4mb 74f 65f
9:30pm  -   -   -  13 20 mph 1021.4mb 74f 66f
9:20pm  -   -   -  16 22 mph 1021.4mb 74f 66f
9:10pm  -   -   -  16 22 mph 1021.3mb 74f 66f
9:00pm  -   -   -  16 22 mph 1021.2mb 74f 65f
8:50pm 10ft 10s 7s 16 22 mph 1021.2mb 74f 66f
8:40pm  -   -   -  16 25 mph 1020.9mb 74f 66f
8:30pm  -   -   -  16 22 mph 1020.9mb 74f 66f
8:20pm  -   -   -  16 22 mph 1020.8mb 74f 66f
8:10pm  -   -   -  18 25 mph 1020.8mb 74f 66f
8:00pm  -   -   -  18 22 mph 1020.7mb 74f 66f
7:50pm 9ft 9s 7s 18 22 mph 1020.7mb 74f 66f
7:40pm  -   -   -  16 25 mph 1020.5mb 74f 66f
7:30pm  -   -   -  18 27 mph 1020.5mb 74f 66f
7:20pm  -   -   -  18 27 mph 1020.3mb 74f 66f
7:10pm  -   -   -  18 25 mph 1020.3mb 74f 66f
7:00pm  -   -   -  20 29 mph 1020.3mb 74f 66f
6:50pm 9ft 9s 7s 18 25 mph 1020.2mb 74f 67f
6:40pm 9ft  -  7s 18 25 mph 1020.2mb 74f 67f
6:30pm  -   -   -  18 27 mph 1020.1mb 74f 67f
6:20pm  -   -   -  18 22 mph 1020.1mb 74f 67f
6:10pm  -   -   -  20 25 mph 1019.9mb 74f 67f
6:00pm  -   -   -  18 27 mph 1020mb 74f 67f
5:50pm 9ft 9s 7s 18 27 mph 1020mb 74f 67f
5:40pm 9ft  -  7s 18 25 mph 1020mb 74f 67f
5:30pm  -   -   -  20 25 mph 1019.9mb 74f 67f
5:20pm  -   -   -  20 27 mph 1020mb 74f 67f
5:10pm  -   -   -  20 27 mph 1020.1mb 74f 67f
5:00pm  -   -   -  20 25 mph 1020.1mb 74f 67f
4:50pm 10ft 9s 7s 20 25 mph 1020.1mb 74f 67f
4:40pm  -   -   -  20 25 mph 1020.3mb 74f 67f
4:30pm  -   -   -  20 27 mph 1020.3mb 74f 67f
4:20pm  -   -   -  20 27 mph 1020.5mb 74f 67f
4:10pm  -   -   -  20 27 mph 1020.7mb 74f 68f
4:00pm  -   -   -  20 25 mph 1020.5mb 74f 68f
3:50pm 9.5ft 9s 7s 20 25 mph 1020.4mb 74f 68f
3:40pm 9.5ft  -  7s 20 25 mph 1020.6mb 74f 68f
3:30pm  -   -   -  18 25 mph 1020.6mb 74f 68f
3:20pm  -   -   -  18 25 mph 1020.5mb 74f 68f
3:10pm  -   -   -  18 25 mph 1020.6mb 74f 68f
3:00pm  -   -   -  18 22 mph 1020.5mb 74f 68f
2:50pm 9.5ft 8s 7s 20 25 mph 1020.5mb 74f 68f
2:40pm 9.5ft  -  7s 18 25 mph 1020.6mb 74f 68f
2:30pm  -   -   -  18 25 mph 1020.4mb 74f 69f
2:20pm  -   -   -  18 25 mph 1020.2mb 74f 69f
2:10pm  -   -   -  20 27 mph 1020.2mb 74f 69f
2:00pm  -   -   -  20 27 mph 1019.9mb 74f 69f
1:50pm 10ft 9s 7s 20 25 mph 1019.8mb 74f 69f
1:40pm  -   -   -  22 27 mph 1019.6mb 74f 69f
1:30pm  -   -   -  20 27 mph 1019.5mb 74f 69f
1:20pm  -   -   -  20 27 mph 1019.4mb 74f 69f
1:10pm  -   -   -  22 29 mph 1019.2mb 74f 70f
1:00pm  -   -   -  22 27 mph 1018.9mb 74f 70f
12:50pm 11.5ft 9s 7s 22 29 mph 1018.9mb 74f 70f
12:40pm  -   -   -  20 27 mph 1018.7mb 74f 69f
12:30pm  -   -   -  20 27 mph 1018.7mb 74f 69f
12:20pm  -   -   -  25 31 mph 1018.5mb - 69f
12:10pm  -   -   -  27 36 mph 1018.4mb 74f 70f
12:00pm  -   -   -  25 31 mph 1018.4mb 74f 70f
11:50am 11.5ft 9s 7s 27 34 mph 1018.2mb 74f 70f
11:40am  -   -   -  27 34 mph 1018.1mb 74f 70f
11:30am  -   -   -  22 34 mph 1017.7mb 74f 70f
11:20am  -   -   -  20 27 mph 1017.6mb 74f 70f
11:10am  -   -   -  22 29 mph 1017.5mb 74f 70f
11:00am  -   -   -  25 31 mph 1017.3mb 74f 71f
10:50am 12ft 8s 7s 27 36 mph 1017mb 74f 70f
10:40am  -   -   -  27 34 mph 1016.8mb 74f 71f
10:30am  -   -   -  27 34 mph 1016.4mb 74f 71f
10:20am  -   -   -  31 40 mph 1016.4mb - -
10:10am  -   -   -  31 40 mph 1016.3mb 74f 69f
10:00am  -   -   -  34 40 mph 1016.2mb 74f 68f
9:50am 12ft 8s 7s 34 43 mph 1016.1mb 74f 68f
9:40am 12ft  -  7s 29 38 mph 1015.8mb 74f 69f
9:30am  -   -   -  31 38 mph 1015.5mb 74f 70f
9:20am  -   -   -  29 36 mph 1015.4mb 74f 70f
9:10am  -   -   -  31 40 mph 1015.3mb 74f 71f
9:00am  -   -   -  34 45 mph 1015.2mb 74f 72f
8:50am 12.5ft 8s 6s 29 38 mph 1015mb 74f 74f
8:40am 12.5ft  -  6s 29 38 mph 1014.9mb 74f 74f
8:30am  -   -   -  34 40 mph 1014.7mb 74f 74f
8:20am  -   -   -  31 40 mph 1014.9mb 74f 74f
8:10am  -   -   -  29 38 mph 1014.8mb 74f 74f
8:00am  -   -   -  29 40 mph 1014.9mb 74f 74f
7:50am 11ft 8s 6s 31 40 mph 1015mb 74f 74f
7:40am  -   -   -  31 38 mph 1014.9mb 74f 74f
7:30am  -   -   -  31 40 mph 1014.9mb 74f 74f
7:20am  -   -   -  31 38 mph 1014.9mb 74f 74f
7:10am  -   -   -  27 34 mph 1014.8mb 74f 74f
7:00am  -   -   -  29 38 mph 1014.7mb 74f 74f
6:50am 10.5ft 8s 6s 31 40 mph 1014.8mb 74f 74f
6:40am 10.5ft  -  6s 27 38 mph 1014.7mb 74f 73f
6:30am  -   -   -  29 40 mph 1014.7mb - 73f
6:20am  -   -   -  29 38 mph 1014.6mb 74f 73f
6:10am  -   -   -  29 36 mph 1014.8mb 74f 73f
6:00am  -   -   -  29 38 mph 1014.9mb 74f 74f
5:50am 9ft 8s 6s 29 38 mph 1014.8mb 74f 73f
5:40am  -   -   -  29 36 mph 1014.7mb 74f 74f
5:30am  -   -   -  29 36 mph 1014.9mb 74f 74f
5:20am  -   -   -  29 38 mph 1014.9mb 74f 74f
5:10am  -   -   -  27 36 mph 1015.2mb 74f 74f
5:00am  -   -   -  29 36 mph 1015.3mb 74f 74f
4:50am 9ft 8s 6s 29 38 mph 1015.5mb 74f 74f
4:40am  -   -   -  29 36 mph 1015.5mb 74f 74f
4:30am  -   -   -  27 34 mph 1015.5mb 74f 74f
4:20am  -   -   -  27 34 mph 1015.6mb 74f 74f
4:10am  -   -   -  27 34 mph 1015.7mb 74f 74f
4:00am  -   -   -  27 34 mph 1015.7mb 74f 74f
3:50am 9ft 8s 6s 27 34 mph 1015.7mb 74f 74f
3:40am 9ft  -  6s 27 36 mph 1016mb 74f 73f
3:30am  -   -   -  27 34 mph 1016.1mb 74f 73f
3:20am  -   -   -  27 34 mph 1016.3mb 74f 74f
3:10am  -   -   -  27 36 mph 1016.5mb 74f 73f
3:00am  -   -   -  27 34 mph 1016.4mb 74f 74f
2:50am 9ft 8s 6s 27 34 mph 1016.5mb 74f 73f
2:40am  -   -   -  27 34 mph 1016.4mb 74f 73f
2:30am  -   -   -  27 36 mph 1016.4mb 74f 73f
2:20am  -   -   -  25 31 mph 1016.3mb 74f 73f
2:10am  -   -   -  27 34 mph 1016.5mb 74f 73f
2:00am  -   -   -  27 34 mph 1016.4mb 74f 73f
1:50am 8ft 8s 6s 27 34 mph 1016.4mb 74f 73f
1:40am 8ft  -  6s 27 34 mph 1016.4mb 74f 73f
1:30am  -   -   -  25 31 mph 1016.4mb 74f 73f
1:20am  -   -   -  27 31 mph 1016.4mb 74f 73f
1:10am  -   -   -  27 34 mph 1016.4mb 74f 73f
1:00am  -   -   -  25 31 mph 1016.5mb 74f 73f
12:50am 8.5ft 8s 6s 25 31 mph 1016.6mb 74f 73f
12:40am 8.5ft  -  6s 27 31 mph 1016.7mb 74f 73f
12:30am  -   -   -  25 31 mph 1016.7mb 74f 73f
12:20am  -   -   -  25 31 mph 1016.7mb 74f 73f
12:10am  -   -   -  27 31 mph 1016.7mb 74f 73f
12:00am  -   -   -  25 29 mph 1016.7mb 74f -
Fri 12/15 11:50pm 8ft 8s 6s 25 31 mph 1016.6mb 74f 73f
11:40pm  -   -   -  25 31 mph 1016.4mb 74f 73f
11:30pm  -   -   -  25 29 mph 1016.3mb - 73f
11:20pm  -   -   -  25 31 mph 1016.5mb 74f 73f
11:10pm  -   -   -  25 31 mph 1016.2mb 74f 73f
11:00pm  -   -   -  25 31 mph 1016.4mb 74f 73f
10:50pm 8ft 8s 6s 22 29 mph 1016.4mb 74f 73f
10:40pm 8ft  -  6s 22 27 mph 1016.2mb 74f 73f
10:30pm  -   -   -  22 29 mph 1016.3mb 74f 73f
10:20pm  -   -   -  25 29 mph 1016.4mb 74f 73f
10:10pm  -   -   -  25 29 mph 1016.6mb 74f 73f
10:00pm  -   -   -  25 31 mph 1016.4mb 74f 73f
9:50pm 8ft 9s 6s 25 31 mph 1016.4mb 74f 73f
9:40pm 8ft  -  6s 22 29 mph 1016.5mb 74f 73f
9:30pm  -   -   -  22 29 mph 1016.3mb 74f 73f
9:20pm  -   -   -  22 29 mph 1016.3mb 74f 73f
9:10pm  -   -   -  22 27 mph 1016.4mb 74f 73f
9:00pm  -   -   -  22 27 mph 1016.5mb 74f 73f
8:50pm 8ft 9s 6s 20 27 mph 1016.4mb 74f 73f
8:40pm  -   -   -  20 27 mph 1016.3mb 74f 73f
8:30pm  -   -   -  22 27 mph 1016.1mb 74f 73f
8:20pm  -   -   -  22 27 mph 1016.3mb 74f 73f
8:10pm  -   -   -  20 27 mph 1016.1mb 74f 73f
8:00pm  -   -   -  22 27 mph 1016.2mb 74f 73f
7:50pm 8ft 9s  -  20 27 mph 1016.3mb 74f 73f
7:40pm  -   -   -  22 27 mph 1016.3mb 74f 73f
7:30pm  -   -   -  22 27 mph 1016.4mb 74f 73f
7:20pm  -   -   -  22 27 mph 1016.4mb 74f 73f
7:10pm  -   -   -  20 29 mph 1016.3mb 74f 73f
7:00pm  -   -   -  22 27 mph 1016.4mb 74f 73f
6:50pm 8ft 10s 6s 22 29 mph 1016.3mb 74f 73f
6:40pm 8ft  -  6s 20 25 mph 1016.5mb 74f 73f
6:30pm  -   -   -  20 27 mph 1016.6mb 74f 73f
6:20pm  -   -   -  22 27 mph 1016.8mb 74f 73f
6:10pm  -   -   -  22 27 mph 1016.8mb - 73f
6:00pm  -   -   -  22 27 mph 1016.8mb 74f 73f
5:50pm 8ft 9s 6s 22 27 mph 1017mb 74f 73f
5:40pm 8ft  -  6s 22 27 mph 1017mb 74f 73f
5:30pm  -   -   -  22 27 mph 1017mb - 73f
5:20pm  -   -   -  22 29 mph 1017.1mb 74f 73f
5:10pm  -   -   -  22 27 mph 1017.3mb 74f 73f
5:00pm  -   -   -  22 29 mph 1017.5mb 74f 73f
4:50pm 7ft 10s 6s 22 29 mph 1017.6mb 74f 73f
4:40pm 7ft  -  6s 22 29 mph 1017.8mb 74f 73f
4:30pm  -   -   -  22 27 mph 1017.9mb 74f 73f
4:20pm  -   -   -  22 27 mph 1018mb 74f 73f
4:10pm  -   -   -  22 29 mph 1017.9mb 74f 73f
4:00pm  -   -   -  22 29 mph 1018.1mb 74f 73f
3:50pm 7.5ft 9s 6s 22 29 mph 1018.1mb 74f 73f
3:40pm 7.5ft  -  6s 22 27 mph 1018.2mb 74f 73f
3:30pm  -   -   -  22 29 mph 1018.4mb 74f 73f
3:20pm  -   -   -  22 29 mph 1018.6mb - 73f
3:10pm  -   -   -  22 27 mph 1018.9mb 74f 73f
3:00pm  -   -   -  22 27 mph 1019mb 74f 73f
2:50pm 8.5ft 9s 6s 22 27 mph 1019.2mb 74f 73f
2:40pm  -   -   -  22 27 mph 1019.1mb 74f 73f
2:30pm  -   -   -  20 27 mph 1018.9mb 74f 73f
2:20pm  -   -   -  20 25 mph 1018.9mb 74f 73f
2:10pm  -   -   -  20 25 mph 1018.8mb 74f 73f
2:00pm  -   -   -  20 22 mph 1018.7mb 74f 73f
1:50pm 8ft 10s 6s 20 25 mph 1018.6mb 74f 73f
1:40pm 8ft  -  6s 22 27 mph 1018.4mb 74f 73f
1:30pm  -   -   -  20 25 mph 1018.2mb 74f 73f
1:20pm  -   -   -  20 27 mph 1018.2mb 74f 73f
1:10pm  -   -   -  20 27 mph 1018.1mb 74f 72f
1:00pm  -   -   -  20 25 mph 1018.2mb 74f 72f
12:50pm 8ft 10s 6s 20 25 mph 1018.1mb 74f 72f
12:40pm 8ft  -  6s 20 25 mph 1018mb 74f 72f
12:30pm  -   -   -  20 25 mph 1018mb 74f 72f
12:20pm  -   -   -  20 25 mph 1017.9mb 74f 72f
12:10pm  -   -   -  20 25 mph 1017.6mb 74f 72f
12:00pm  -   -   -  20 25 mph 1017.7mb 74f 72f
11:50am 8ft 10s 7s 20 25 mph 1017.8mb 74f 72f
11:40am  -   -   -  20 22 mph 1017.6mb 74f 72f
11:30am  -   -   -  20 25 mph 1017.7mb 74f 72f
11:20am  -   -   -  18 22 mph 1017.6mb 74f 72f
11:10am  -   -   -  18 22 mph 1017.4mb 74f 72f
11:00am  -   -   -  18 22 mph 1017.4mb 74f 72f
10:50am 8.5ft 10s 7s 18 22 mph 1017.3mb 74f 72f
10:40am 8.5ft  -  7s 18 22 mph 1017.2mb 74f 72f
10:30am  -   -   -  18 22 mph 1017.3mb 74f 72f
10:20am  -   -   -  16 22 mph 1017.1mb 74f 72f
10:10am  -   -   -  16 22 mph 1017.2mb 74f 72f
10:00am  -   -   -  16 20 mph 1017.1mb 74f 72f
9:50am 9ft 8s 7s 16 20 mph 1016.9mb 74f 72f
9:40am 9ft  -  7s 16 20 mph 1017mb 74f 72f
9:30am  -   -   -  16 22 mph 1016.9mb 74f 72f
9:20am  -   -   -  18 22 mph 1016.9mb 74f 72f
9:10am  -   -   -  18 22 mph 1016.9mb 74f 72f
9:00am  -   -   -  20 25 mph 1016.8mb 74f 72f
8:50am 9ft 9s 7s 20 25 mph 1016.8mb 74f 72f
8:40am 9ft  -  7s 20 25 mph 1016.8mb 74f 72f
8:30am  -   -   -  18 25 mph 1016.9mb 74f 72f
8:20am  -   -   -  18 22 mph 1016.9mb 74f 72f
8:10am  -   -   -  20 25 mph 1017mb 74f 72f
8:00am  -   -   -  18 22 mph 1017mb 74f 72f
7:50am 10ft 10s 7s 18 22 mph 1017mb - 72f
7:40am 10ft  -  7s 18 22 mph 1016.9mb 74f 72f
7:30am  -   -   -  18 22 mph 1016.9mb 74f 72f
7:20am  -   -   -  20 25 mph 1016.9mb 74f 72f
7:10am  -   -   -  20 25 mph 1017.1mb 74f 72f
7:00am  -   -   -  20 27 mph 1016.9mb 74f 72f
6:50am 9.5ft 10s 7s 20 25 mph 1016.9mb 74f 72f
6:40am  -   -   -  20 25 mph 1016.8mb 74f 72f
6:30am  -   -   -  18 25 mph 1016.8mb 74f 72f
6:20am  -   -   -  18 22 mph 1016.9mb 74f 72f
6:10am  -   -   -  20 25 mph 1016.8mb 74f 72f
6:00am  -   -   -  20 25 mph 1017.1mb 74f 72f
5:50am 10ft 9s 7s 20 25 mph 1017.1mb 74f 72f
5:40am 10ft  -  7s 20 27 mph 1017mb 74f 72f
5:30am  -   -   -  20 25 mph 1017.1mb 74f 72f
5:20am  -   -   -  20 27 mph 1017.2mb 74f 72f
5:10am  -   -   -  20 25 mph 1016.9mb 74f 72f
5:00am  -   -   -  20 25 mph 1016.9mb 74f 72f
4:50am 10ft 9s 7s 20 27 mph 1016.9mb 74f 72f
4:40am 10ft  -  7s 20 27 mph 1016.9mb 74f 72f
4:30am  -   -   -  20 27 mph 1017.1mb 74f 72f
4:20am  -   -   -  20 27 mph 1017mb 74f 72f
4:10am  -   -   -  20 27 mph 1016.9mb 74f 72f
4:00am  -   -   -  20 25 mph 1017mb 74f 72f
3:50am 9.5ft 9s 6s 20 25 mph 1017mb - 72f
3:40am 9.5ft  -  6s 20 27 mph 1017.1mb 74f 73f
3:30am  -   -   -  20 27 mph 1017mb 74f 73f
3:20am  -   -   -  22 27 mph 1017.1mb 74f 72f
3:10am  -   -   -  22 27 mph 1016.9mb 74f 72f
3:00am  -   -   -  22 27 mph 1017mb 74f 72f
2:50am 10ft 9s 7s 20 25 mph 1016.9mb 74f 73f
2:40am 10ft  -  7s 22 27 mph 1016.8mb 74f 72f
2:30am  -   -   -  22 29 mph 1016.8mb 74f 72f
2:20am  -   -   -  22 27 mph 1016.7mb 74f 72f
2:10am  -   -   -  22 29 mph 1016.7mb 74f 72f
2:00am  -   -   -  22 29 mph 1016.6mb 74f 72f
1:50am 9.5ft 8s 7s 20 27 mph 1016.5mb 74f 72f
1:40am 9.5ft  -  7s 20 25 mph 1016.5mb - 72f
1:30am  -   -   -  20 27 mph 1016.5mb 74f 71f
1:20am  -   -   -  20 27 mph 1016.5mb 74f 72f
1:10am  -   -   -  22 29 mph 1016.5mb 74f 71f
1:00am  -   -   -  25 29 mph 1016.4mb - 71f
12:50am 9.5ft 8s 7s 25 36 mph 1016.4mb 74f 73f
12:40am  -   -   -  22 27 mph 1016.2mb 74f 73f
12:30am  -   -   -  22 27 mph 1016.3mb 74f 73f
12:20am  -   -   -  22 27 mph 1016.2mb 74f 73f
12:10am  -   -   -  22 27 mph 1016.1mb 74f 73f
12:00am  -   -   -  22 29 mph 1015.9mb 74f 73f
Thu 12/14 11:50pm 10ft 8s 6s 22 29 mph 1015.8mb 74f 73f
11:40pm  -   -   -  22 29 mph 1015.9mb 74f 73f
11:30pm  -   -   -  22 27 mph 1015.7mb 74f 73f
11:20pm  -   -   -  22 29 mph 1015.4mb 74f 73f
11:10pm  -   -   -  22 29 mph 1015.5mb 74f 72f
11:00pm  -   -   -  25 31 mph 1015.4mb 74f 72f
10:50pm 10ft 9s 6s 25 31 mph 1015.4mb 74f 72f
10:40pm  -   -   -  25 31 mph 1015.3mb 74f 72f
10:30pm  -   -   -  25 29 mph 1015.2mb 74f 72f
10:20pm  -   -   -  25 31 mph 1015.1mb 74f 72f
10:10pm  -   -   -  25 31 mph 1015.1mb 74f 72f
10:00pm  -   -   -  25 29 mph 1014.9mb 74f 72f
9:50pm 10.5ft 9s 7s 25 31 mph 1014.8mb 74f 72f
8:50pm 10ft 9s 7s 25 31 mph 1014.3mb 74f 72f
8:10pm  -   -   -  25 29 mph 1014.1mb 74f 72f
8:00pm  -   -   -  25 31 mph 1014.1mb 74f 72f
7:50pm 10ft 8s 7s 22 29 mph 1013.9mb 74f 72f
7:40pm  -   -   -  25 34 mph 1014mb 74f 72f
7:30pm  -   -   -  25 31 mph 1013.9mb 74f 72f
7:20pm  -   -   -  25 31 mph 1013.8mb 74f 72f
7:10pm  -   -   -  25 34 mph 1014mb 74f 72f
7:00pm  -   -   -  27 34 mph 1013.9mb 74f 72f
6:50pm 9ft 9s 6s 25 31 mph 1014mb 74f 72f
6:40pm  -   -   -  22 27 mph 1013.8mb 74f 71f
6:30pm  -   -   -  25 36 mph 1014mb 74f 72f
6:20pm  -   -   -  25 31 mph 1013.9mb 74f 72f
6:10pm  -   -   -  22 29 mph 1013.8mb 74f 72f
6:00pm  -   -   -  22 29 mph 1013.9mb 74f 72f
5:50pm 9.5ft 10s 6s 25 31 mph 1013.8mb 74f 72f
5:40pm  -   -   -  27 34 mph 1013.8mb 74f 72f
5:30pm  -   -   -  25 31 mph 1013.9mb 74f 72f
5:20pm  -   -   -  25 34 mph 1013.8mb 74f 71f
5:10pm  -   -   -  25 31 mph 1013.9mb 74f 71f
5:00pm  -   -   -  25 31 mph 1013.9mb 74f 71f
4:50pm 10ft 10s 6s 25 34 mph 1014.1mb 74f 71f
4:40pm  -   -   -  25 34 mph 1014mb 74f 71f
4:30pm  -   -   -  25 31 mph 1014.1mb 74f 71f
4:20pm  -   -   -  27 34 mph 1014.2mb 74f 71f
4:10pm  -   -   -  27 34 mph 1014.3mb 74f 71f
4:00pm  -   -   -  27 34 mph 1014.4mb 74f 72f
3:50pm 9ft 10s 6s 25 31 mph 1014.6mb 74f 72f
3:40pm 9ft  -  6s 27 31 mph 1014.5mb 74f 72f
3:30pm  -   -   -  27 34 mph 1014.7mb 74f 72f
3:20pm  -   -   -  27 34 mph 1014.7mb 74f 72f
3:10pm  -   -   -  29 36 mph 1014.8mb 74f 72f
3:00pm  -   -   -  27 34 mph 1014.7mb 74f 72f
2:50pm 9.5ft 10s 7s 27 34 mph 1014.8mb 74f 72f
2:40pm 9.5ft  -  7s 27 34 mph 1014.7mb 74f 71f
2:30pm  -   -   -  22 31 mph 1014.8mb 74f 70f
2:20pm  -   -   -  22 29 mph 1014.9mb 74f 71f
2:10pm  -   -   -  25 31 mph 1014.7mb 74f 71f
2:00pm  -   -   -  22 29 mph 1014.7mb - 71f
1:50pm 9ft 10s 7s 25 31 mph 1014.6mb 74f 71f
1:40pm 9ft  -  7s 25 31 mph 1014.7mb 74f 70f
1:30pm  -   -   -  22 29 mph 1014.7mb 74f 70f
1:20pm  -   -   -  18 31 mph 1014.6mb 74f 69f
1:10pm  -   -   -  18 25 mph 1014.6mb 74f 69f
1:00pm  -   -   -  18 25 mph 1014.5mb 74f -
12:50pm 10.5ft 10s 7s 22 29 mph 1014.4mb 74f 69f
12:40pm  -   -   -  25 29 mph 1014.1mb 74f 69f
12:30pm  -   -   -  22 29 mph 1014.1mb 74f 69f
12:20pm  -   -   -  25 31 mph 1013.9mb 74f 69f
12:10pm  -   -   -  22 29 mph 1014mb 74f 69f
12:00pm  -   -   -  20 29 mph 1014mb 74f 69f
11:50am 11.5ft 10s 7s 20 27 mph 1014mb 74f 69f
11:40am  -   -   -  22 27 mph 1014.1mb 74f 69f
11:30am  -   -   -  22 27 mph 1014.1mb 74f 69f
11:20am  -   -   -  22 29 mph 1014mb 74f 69f
11:10am  -   -   -  22 29 mph 1013.9mb 74f 69f
11:00am  -   -   -  20 27 mph 1013.8mb 74f 68f
10:50am 10.5ft 11s 7s 20 27 mph 1013.9mb 74f 68f
10:40am  -   -   -  20 27 mph 1013.9mb 74f 68f
10:30am  -   -   -  20 31 mph 1013.8mb 74f 68f
10:20am  -   -   -  20 29 mph 1013.8mb 74f 68f
10:10am  -   -   -  20 27 mph 1013.7mb 74f 68f
10:00am  -   -   -  20 27 mph 1013.5mb 74f 68f
9:50am 10.5ft 11s 7s 18 25 mph 1013.6mb 74f 68f
9:40am  -   -   -  20 25 mph 1013.7mb 74f 68f
9:30am  -   -   -  22 29 mph 1013.6mb 74f 68f
9:20am  -   -   -  22 31 mph 1013.6mb 74f 68f
9:10am  -   -   -  20 29 mph 1013.7mb 74f 67f
9:00am  -   -   -  20 27 mph 1013.8mb 74f 67f
8:50am 13ft 11s 8s 20 27 mph 1013.8mb 74f 67f
8:40am 13ft  -  8s 20 29 mph 1013.8mb 74f 67f
8:30am  -   -   -  20 25 mph 1013.7mb - 67f
8:20am  -   -   -  18 25 mph 1013.8mb 74f 67f
8:10am  -   -   -  16 22 mph 1013.9mb 74f 66f
8:00am  -   -   -  16 20 mph 1014mb 74f 66f
7:50am 13ft 11s 8s 16 25 mph 1014mb 74f 66f
7:40am  -   -   -  18 22 mph 1014.2mb 74f 66f
7:30am  -   -   -  18 22 mph 1014.1mb 74f 66f
7:20am  -   -   -  18 27 mph 1014.2mb 74f 66f
7:10am  -   -   -  16 22 mph 1014.3mb 74f 66f
7:00am  -   -   -  18 25 mph 1014.4mb 74f 66f
6:50am 12.5ft 11s 8s 20 27 mph 1014.5mb 74f 66f
6:40am 12.5ft  -  8s 20 27 mph 1014.5mb 74f 66f
6:30am  -   -   -  20 25 mph 1014.4mb 74f 66f
6:20am  -   -   -  18 25 mph 1014.4mb 74f 65f
6:10am  -   -   -  18 25 mph 1014.4mb 74f 65f
6:00am  -   -   -  16 25 mph 1014.4mb 74f 65f
5:50am 14ft 11s 8s 16 22 mph 1014.3mb 74f 64f
5:40am 14ft  -  8s 16 22 mph 1014.4mb - 64f
5:30am  -   -   -  16 22 mph 1014.4mb - 64f
5:20am  -   -   -  16 22 mph 1014.6mb 74f 64f
5:10am  -   -   -  16 25 mph 1014.4mb 74f 64f
5:00am  -   -   -  13 22 mph 1014.5mb 74f 64f
4:50am 14.5ft 11s 8s 13 20 mph 1014.4mb 74f 63f
4:40am 14.5ft  -  8s 16 22 mph 1014.3mb 74f 63f
4:30am  -   -   -  16 25 mph 1014.4mb - 63f
4:20am  -   -   -  16 25 mph 1014.5mb 74f 63f
4:10am  -   -   -  16 25 mph 1014.6mb 74f 63f
4:00am  -   -   -  13 20 mph 1014.7mb 74f 63f
3:50am 16ft 11s 9s 18 25 mph 1014.7mb 74f 63f
3:40am 16ft  -  9s 16 27 mph 1014.8mb 74f 63f
3:30am  -   -   -  16 25 mph 1014.9mb 74f 63f
3:20am  -   -   -  18 27 mph 1014.9mb 74f 63f
3:10am  -   -   -  16 25 mph 1014.9mb 74f 63f
3:00am  -   -   -  16 25 mph 1014.9mb 74f 63f
2:50am 17ft 11s 9s 18 25 mph 1014.9mb 74f 63f
2:40am  -   -   -  18 25 mph 1014.9mb 74f 63f
2:30am  -   -   -  18 27 mph 1014.7mb 74f 63f
2:20am  -   -   -  18 27 mph 1014.8mb 74f 63f
2:10am  -   -   -  18 27 mph 1014.8mb 74f 63f
2:00am  -   -   -  18 29 mph 1014.6mb 74f 63f
1:50am 17ft 11s 9s 18 25 mph 1014.6mb 74f 62f
1:40am  -   -   -  18 25 mph 1014.6mb 74f 62f
1:30am  -   -   -  18 27 mph 1014.6mb 74f 62f
1:20am  -   -   -  18 25 mph 1014.5mb 74f 62f
1:10am  -   -   -  18 27 mph 1014.5mb 74f 62f
1:00am  -   -   -  18 27 mph 1014.3mb 74f 63f
12:50am 16.5ft 11s 9s 18 31 mph 1014.3mb 74f 63f
12:40am  -   -   -  20 31 mph 1014.3mb 74f 62f
12:30am  -   -   -  20 27 mph 1014.2mb 74f 63f
12:20am  -   -   -  20 29 mph 1014.2mb 74f 62f
12:10am  -   -   -  20 27 mph 1014.1mb 74f 62f
12:00am  -   -   -  22 29 mph 1014.1mb 74f 62f
Wed 12/13 11:50pm 15.5ft 12s 9s 22 29 mph 1014mb 74f 62f
11:40pm  -   -   -  25 34 mph 1013.8mb 74f 63f
11:30pm  -   -   -  22 29 mph 1013.7mb 74f 62f
11:20pm  -   -   -  22 31 mph 1013.7mb 74f 62f
11:10pm  -   -   -  22 34 mph 1013.5mb 74f 63f
11:00pm  -   -   -  22 31 mph 1013.5mb 74f 62f
10:50pm 16.5ft 11s 8s 25 31 mph 1013.3mb 74f 62f
10:40pm  -   -   -  22 31 mph 1013.2mb 74f 62f
10:30pm  -   -   -  25 34 mph 1013.1mb 74f 62f
10:20pm  -   -   -  27 36 mph 1012.9mb 74f 62f
10:10pm  -   -   -  25 29 mph 1012.8mb 74f 63f
10:00pm  -   -   -  25 36 mph 1012.7mb 74f 62f
9:50pm 19ft 12s 9s 27 36 mph 1012.6mb 74f 63f
9:40pm  -   -   -  29 40 mph 1012.3mb 74f 63f
9:30pm  -   -   -  27 34 mph 1012.3mb 74f 62f
9:20pm  -   -   -  27 36 mph 1012.1mb 74f 63f
9:10pm  -   -   -  27 36 mph 1012mb 74f 63f
9:00pm  -   -   -  27 34 mph 1011.9mb 74f 62f
8:50pm 17.5ft 11s 9s 27 36 mph 1011.9mb 74f 63f
8:40pm 17.5ft  -  9s 27 36 mph 1011.7mb 74f 63f
8:30pm  -   -   -  29 36 mph 1011.6mb 74f 63f
8:20pm  -   -   -  29 40 mph 1011.5mb 74f 63f
8:10pm  -   -   -  29 40 mph 1011.3mb 74f 63f
8:00pm  -   -   -  29 38 mph 1011.3mb 74f 62f
7:50pm 18ft 13s 9s 27 36 mph 1011.2mb 74f 62f
7:40pm  -   -   -  27 38 mph 1011.3mb 74f 62f
7:30pm  -   -   -  27 38 mph 1010.9mb 74f 63f
7:20pm  -   -   -  29 38 mph 1010.9mb 74f 63f
7:10pm  -   -   -  29 38 mph 1010.7mb 74f 63f
7:00pm  -   -   -  29 40 mph 1010.5mb 74f 63f
6:50pm 18.5ft 12s 8s 29 38 mph 1010.5mb 74f 63f
6:40pm 18.5ft  -  8s 31 40 mph 1010.4mb 74f 63f
6:30pm  -   -   -  31 43 mph 1010.2mb 74f 63f
6:20pm  -   -   -  31 43 mph 1010.1mb 74f 63f
6:10pm  -   -   -  31 38 mph 1010mb 74f 63f
6:00pm  -   -   -  31 40 mph 1009.8mb 74f 64f
5:50pm 17.5ft 12s 9s 34 40 mph 1009.7mb 74f 63f
5:40pm 17.5ft  -  9s 34 43 mph 1009.6mb 74f 64f
5:30pm  -   -   -  34 47 mph 1009.7mb 74f 64f
5:20pm  -   -   -  34 43 mph 1009.7mb 74f 64f
5:10pm  -   -   -  31 40 mph 1009.5mb 74f 64f
5:00pm  -   -   -  31 40 mph 1009.5mb 74f 64f
4:50pm 17ft 11s 8s 34 43 mph 1009.2mb 74f 64f
4:40pm 17ft  -  8s 34 45 mph 1009.3mb 74f 64f
4:30pm  -   -   -  31 43 mph 1009.2mb 74f 65f
4:20pm  -   -   -  31 40 mph 1009.3mb 74f 65f
4:10pm  -   -   -  31 40 mph 1009.3mb 74f 65f
4:00pm  -   -   -  31 40 mph 1009.2mb 74f 65f
3:50pm 16ft 12s 8s 31 40 mph 1009.2mb 74f 65f
3:40pm  -   -   -  31 40 mph 1009.1mb 74f 66f
3:30pm  -   -   -  31 36 mph 1009.2mb 74f 66f
3:20pm  -   -   -  29 38 mph 1009.2mb 74f 66f
3:10pm  -   -   -  31 40 mph 1009.2mb 74f 66f
3:00pm  -   -   -  29 38 mph 1009.3mb 74f 66f
2:50pm 17.5ft 11s 8s 29 40 mph 1009.1mb 74f 66f
2:40pm 17.5ft  -  8s 29 38 mph 1008.9mb 74f 65f
2:30pm  -   -   -  31 45 mph 1008.9mb 74f 66f
2:20pm  -   -   -  29 36 mph 1008.7mb 74f 66f
2:10pm  -   -   -  29 40 mph 1008.4mb 74f 66f
2:00pm  -   -   -  29 38 mph 1008.3mb 74f 67f
1:50pm 14.5ft 11s 8s 29 43 mph 1008.2mb 74f 67f
1:40pm  -   -   -  31 38 mph 1008mb 74f 67f
1:30pm  -   -   -  31 43 mph 1007.6mb 74f 67f
1:20pm  -   -   -  31 40 mph 1007.4mb 74f 67f
1:10pm  -   -   -  31 40 mph 1007.1mb 74f 67f
1:00pm  -   -   -  31 40 mph 1006.5mb 74f 68f
12:50pm 15.5ft 11s 8s 29 36 mph 1006.5mb 74f 69f
12:40pm  -   -   -  29 40 mph 1006.4mb 74f 70f
12:30pm  -   -   -  34 43 mph 1006.1mb 74f 69f
12:20pm  -   -   -  31 43 mph 1006.1mb 74f 69f
12:10pm  -   -   -  31 40 mph 1006.1mb 74f 69f
12:00pm  -   -   -  31 43 mph 1005.9mb 74f 70f
11:50am 16ft 11s 8s 31 40 mph 1005.6mb 74f 69f
11:40am 16ft  -  8s 31 38 mph 1005.4mb 74f 69f
11:30am  -   -   -  31 40 mph 1005.3mb 74f 69f
11:20am  -   -   -  34 43 mph 1005.1mb 74f 69f
11:10am  -   -   -  34 43 mph 1004.8mb 74f 70f
11:00am  -   -   -  31 40 mph 1004.5mb 74f 70f
10:50am 16.5ft 10s 8s 31 40 mph 1004.1mb 74f 71f
10:40am  -   -   -  34 43 mph 1003.9mb 74f 70f
10:30am  -   -   -  31 43 mph 1003.9mb 74f 70f
10:20am  -   -   -  29 38 mph 1003.6mb 74f 69f
10:10am  -   -   -  27 38 mph 1003.3mb 74f 69f
10:00am  -   -   -  27 36 mph 1003.1mb 74f 68f
9:50am 16ft 11s 7s 29 38 mph 1003.1mb 74f 68f
9:40am  -   -   -  29 38 mph 1003.1mb 74f 68f
9:30am  -   -   -  31 38 mph 1003.1mb 74f 68f
9:20am  -   -   -  31 40 mph 1002.9mb 74f 68f
9:10am  -   -   -  34 45 mph 1002.9mb 74f 67f
9:00am  -   -   -  38 51 mph 1003mb 74f 68f
8:50am 18ft 10s 8s 36 45 mph 1002.5mb 74f 70f
8:40am 18ft  -  8s 34 45 mph 1002.4mb 74f 70f
8:30am  -   -   -  36 47 mph 1002.3mb 74f 70f
8:20am  -   -   -  36 49 mph 1002.2mb 74f 70f
8:10am  -   -   -  38 51 mph 1002.2mb 74f 69f
8:00am  -   -   -  34 43 mph 1002.3mb 74f 69f
7:50am 15ft 9s 7s 36 45 mph 1002.4mb 74f 68f
7:40am  -   -   -  38 49 mph 1002.4mb 74f 68f
7:30am  -   -   -  38 54 mph 1002.5mb 74f 71f
7:20am  -   -   -  36 49 mph 1002mb 74f 73f
7:10am  -   -   -  38 47 mph 1002.1mb 74f 73f
7:00am  -   -   -  38 47 mph 1002.2mb 74f 73f
6:50am 12ft 7s 6s 38 49 mph 1002.2mb 74f 73f
6:40am 12ft  -  6s 36 45 mph 1002.1mb 74f 73f